Wind_Speed
33 34 34 35 36 36 37 39 40 40 40 41 42 43 43 43 43 44 44 44 43 43 42 42 43 43 44 44 45 45 45 45 45 46 47 47 47 48 48 48 48 50 52 53
34 35 36 36 36 37 38 39 41 41 41 41 42 43 43 42 42 43 43 43 43 42 42 42 42 42 42 43 44 44 44 44 44 44 44 45 46 47 47 47 47 48 50 51
36 36 37 37 37 38 39 40 41 42 42 42 43 43 43 42 42 42 43 43 42 42 41 41 41 42 42 43 43 43 43 42 42 43 43 44 44 45 47 47 47 48 48 49
37 37 38 38 38 39 40 40 41 41 42 43 43 43 43 42 42 42 43 43 42 41 41 41 41 41 41 41 42 42 42 42 42 42 42 42 43 44 45 45 46 47 46 47
38 39 40 39 39 40 41 40 41 42 42 43 43 42 41 41 41 42 42 42 42 41 41 40 40 41 41 41 41 42 42 42 42 41 41 41 41 42 42 42 43 44 44 44
40 41 41 41 41 41 42 42 42 42 43 43 43 42 40 40 40 41 42 42 41 41 40 40 41 41 41 41 40 40 39 39 39 40 40 39 39 40 40 40 41 41 41 41
39 40 41 41 42 42 42 43 43 42 43 43 43 42 41 40 40 41 41 41 41 41 41 41 42 42 41 40 39 38 38 37 37 37 37 37 38 38 39 39 39 39 38 39
39 40 40 41 42 42 42 43 43 43 42 42 42 42 41 41 41 41 41 41 41 41 41 41 41 41 40 39 38 37 37 37 37 35 35 35 35 36 37 37 37 37 37 36
40 40 41 41 42 42 43 43 43 43 42 42 42 42 42 42 42 42 42 42 41 41 41 41 40 40 40 38 37 35 35 35 34 34 33 33 33 33 33 34 35 35 35 35
39 39 41 41 42 43 43 43 43 43 42 42 42 42 42 42 42 42 42 42 41 40 40 40 40 39 38 37 36 35 34 33 33 33 32 32 33 32 33 33 33 33 33 33
39 39 40 41 42 42 43 43 42 42 42 42 43 42 42 42 42 42 42 41 41 40 40 40 39 38 37 37 36 35 34 33 32 32 31 31 31 30 31 31 31 31 31 32
39 40 40 41 41 42 42 42 42 42 42 42 43 42 42 42 42 42 42 41 41 40 39 39 39 38 37 37 36 35 34 33 33 32 31 30 30 30 30 30 30 30 30 30
39 39 40 41 42 42 42 42 42 42 42 42 42 42 42 42 42 42 41 41 40 39 39 39 38 38 37 36 35 34 33 33 32 31 30 29 29 28 28 29 29 29 29 28
39 40 40 41 41 41 42 42 42 42 41 41 41 41 41 41 41 40 40 40 39 39 39 39 39 38 37 36 35 33 33 31 30 30 29 29 29 28 28 27 27 28 28 28
40 40 40 41 41 41 41 41 41 41 41 41 41 41 41 41 40 40 40 39 39 39 39 39 38 38 37 35 34 33 32 31 30 29 29 29 28 28 28 27 27 27 27 27
39 39 40 40 40 40 40 40 40 40 40 40 40 40 41 41 40 40 40 39 39 39 39 38 38 37 36 34 33 31 31 30 29 29 29 29 28 27 26 26 26 25 25 26
37 38 38 39 39 39 39 39 40 40 40 40 40 40 40 40 40 39 39 39 39 39 38 37 37 36 35 34 32 31 30 29 29 29 28 27 27 26 25 25 25 24 24 24
37 38 38 38 38 38 39 39 40 40 39 39 39 39 39 39 39 39 39 39 38 38 37 37 36 35 35 34 32 30 29 28 27 26 26 25 25 24 24 24 23 23 23 23
37 37 37 37 38 38 39 39 39 39 38 38 38 38 38 39 38 38 38 37 37 36 36 35 35 35 34 33 32 30 29 27 26 25 24 24 23 23 23 22 22 22 22 22
37 37 38 38 39 39 38 38 38 38 38 38 38 38 38 38 38 37 36 36 35 35 34 34 34 33 33 32 30 29 28 27 26 25 24 23 22 21 21 20 20 20 20 20
37 37 38 38 38 38 38 38 38 38 38 38 38 37 37 37 36 36 35 35 35 35 34 34 33 32 31 29 28 27 27 26 25 24 23 22 21 20 20 19 18 19 19 19
37 37 38 38 38 38 38 38 38 38 38 37 37 36 36 36 36 35 35 34 34 34 34 33 32 31 29 27 26 26 25 24 24 23 22 21 21 20 19 18 18 17 17 17
37 37 37 37 38 38 38 38 38 37 37 36 36 36 36 35 35 35 34 34 33 33 33 32 31 30 28 26 25 24 23 22 22 21 20 20 19 18 18 17 17 16 16 16
37 37 37 37 38 37 37 37 36 36 36 36 36 35 35 35 35 35 34 33 33 32 32 32 30 29 27 25 24 22 21 20 20 19 19 18 18 17 17 16 16 16 16 15
36 37 37 37 37 36 36 35 35 35 35 35 35 35 35 35 35 34 34 33 32 32 31 31 29 27 25 23 22 21 20 19 19 18 18 18 18 17 17 16 16 16 16 16
36 36 37 36 35 35 35 34 34 35 35 35 35 35 35 35 34 33 33 32 32 31 30 29 27 25 23 22 22 21 20 19 19 19 18 18 17 17 17 16 16 16 16 16
36 36 35 34 34 34 34 34 34 35 35 35 35 35 34 34 33 32 32 31 30 29 27 26 24 24 23 22 21 21 20 19 19 18 17 16 16 16 15 15 15 16 16 16
Wind_Direction
296 297 298 298 298 299 300 301 301 303 303 304 304 305 305 304 303 303 303 303 302 299 296 293 291 289 287 285 284 283 282 278 276 274 271 269 267 265 265 266 265 264 262 262
296 297 297 297 299 299 301 301 302 302 304 304 304 304 304 304 303 303 303 303 303 300 298 296 293 290 289 286 284 284 284 280 277 275 272 270 268 267 266 267 267 266 265 264
299 298 298 298 300 301 302 302 302 303 304 304 303 304 304 303 303 303 303 303 303 302 300 297 295 293 290 288 286 284 283 282 279 276 274 272 271 269 268 268 268 268 267 266
300 300 299 301 302 302 302 302 303 303 303 303 304 304 304 303 304 304 303 303 303 302 300 299 297 296 294 291 288 286 284 283 281 278 275 274 273 272 270 270 269 268 268 266
300 300 301 301 302 303 303 303 303 303 303 303 304 304 303 302 303 304 304 304 304 303 301 299 298 297 297 295 291 288 285 283 281 279 277 276 274 273 272 271 270 269 268 266
300 300 302 303 303 303 303 303 303 303 303 303 304 304 304 302 303 304 305 305 305 304 302 301 299 298 298 298 295 291 287 283 281 280 279 276 276 276 274 272 271 270 269 267
300 300 301 303 303 303 303 304 305 304 303 304 304 304 304 303 303 305 306 306 305 305 304 302 301 300 299 299 297 294 289 285 284 283 282 279 277 276 275 273 271 270 268 266
301 301 302 303 303 303 303 304 304 304 304 304 304 304 304 303 303 304 305 305 305 305 304 303 303 302 301 299 297 295 292 287 285 285 283 281 278 277 276 274 271 269 267 265
302 301 301 302 302 303 303 304 304 304 304 304 304 304 304 303 302 303 304 304 304 304 304 304 304 303 302 301 299 297 294 292 287 284 283 281 280 280 278 274 272 270 268 265
301 301 301 301 302 303 303 304 304 304 304 304 303 304 304 303 302 302 303 303 304 304 304 305 305 305 303 301 298 296 295 292 290 286 282 281 280 280 279 276 273 271 268 266
300 300 300 301 302 304 304 304 304 304 303 303 303 303 304 303 302 302 303 303 303 303 303 304 305 305 303 302 300 298 296 293 290 288 284 282 281 281 280 277 274 272 270 267
300 300 300 302 303 304 305 305 305 304 303 302 302 302 303 303 303 303 303 303 302 302 302 303 305 305 303 300 299 298 296 293 291 289 287 284 282 280 280 278 275 273 271 268
300 300 301 303 304 304 305 305 305 304 303 303 302 302 303 303 303 303 303 303 303 302 302 303 304 305 303 300 299 297 295 293 291 289 286 285 284 281 280 278 276 274 271 269
300 301 302 303 304 305 305 305 305 305 304 303 303 303 304 304 304 303 303 303 303 302 302 303 303 304 304 301 299 297 295 293 291 288 286 285 284 282 281 278 275 272 271 269
300 301 302 304 305 305 306 306 306 306 305 305 304 303 304 304 304 304 303 304 304 303 303 303 303 303 303 302 300 297 295 292 290 288 287 285 284 282 281 279 276 272 269 267
301 302 303 304 305 306 306 306 306 306 306 306 305 304 304 304 305 305 304 304 304 304 303 303 302 302 302 302 300 298 295 293 291 289 287 285 284 283 281 278 275 272 269 267
303 304 304 305 305 306 306 307 307 307 306 306 306 306 306 306 306 305 305 305 305 304 304 303 302 301 301 301 300 298 295 294 292 291 289 286 283 282 281 277 274 272 269 266
304 305 306 305 305 306 307 308 308 308 307 307 307 308 308 308 307 307 307 306 306 305 305 304 302 302 301 300 298 297 295 294 293 291 290 288 286 283 280 277 273 271 268 265
304 305 306 306 306 307 308 309 309 309 309 308 308 309 309 309 309 308 308 308 307 306 305 305 304 303 301 299 297 294 293 292 291 290 289 288 287 286 282 277 272 270 268 265
304 305 306 307 308 309 309 309 310 310 310 310 309 310 310 310 310 310 310 309 309 309 307 306 305 305 302 299 296 294 292 290 289 288 287 286 286 285 282 277 272 270 269 266
304 305 306 307 308 309 309 309 310 311 311 310 310 311 311 312 312 311 311 310 310 310 310 309 308 306 304 301 297 294 292 290 288 287 285 284 284 283 280 277 273 270 268 265
305 306 307 308 308 309 310 310 310 311 311 311 311 312 312 313 313 313 312 311 310 310 311 311 310 307 305 302 298 295 293 290 288 286 284 283 282 280 277 274 271 269 266 263
305 307 308 309 309 309 310 310 311 311 311 312 312 313 313 313 313 314 313 312 311 311 312 312 310 308 305 302 299 297 294 291 288 285 284 282 280 278 275 272 270 266 264 262
306 307 308 309 309 310 310 311 311 312 312 313 314 314 314 314 314 314 314 313 313 312 312 312 310 307 305 302 299 297 295 291 288 285 283 281 279 277 274 270 267 264 262 261
306 307 308 309 310 310 310 311 312 312 312 313 314 314 314 314 314 315 315 315 314 313 312 312 310 308 305 302 300 297 295 291 288 285 282 280 277 274 271 267 265 262 260 260
306 307 308 309 309 310 310 311 312 312 313 313 313 314 315 315 315 315 316 316 315 315 314 313 311 309 306 303 300 298 295 292 289 286 283 279 275 272 268 265 263 261 260 258
305 306 308 308 309 310 310 310 312 313 314 314 314 314 315 315 316 316 317 317 317 317 316 315 313 311 308 305 301 298 295 292 289 286 283 280 276 271 267 264 262 260 259 257
Height
5640 5637 5634 5631 5628 5624 5619 5615 5611 5608 5603 5598 5592 5587 5582 5577 5572 5567 5561 5556 5552 5547 5542 5538 5535 5531 5528 5525 5522 5519 5517 5514 5512 5511 5511 5511 5511 5512 5512 5512 5513 5514 5515 5516
5633 5630 5626 5622 5619 5615 5611 5607 5602 5597 5594 5589 5583 5577 5572 5567 5562 5557 5552 5547 5541 5536 5532 5527 5524 5520 5517 5513 5510 5508 5505 5502 5500 5499 5498 5497 5498 5498 5498 5498 5498 5499 5500 5501
5623 5620 5617 5614 5612 5607 5602 5597 5593 5588 5585 5578 5573 5568 5562 5557 5552 5547 5542 5536 5531 5526 5521 5517 5513 5509 5505 5502 5498 5496 5492 5490 5488 5487 5486 5485 5484 5484 5484 5484 5484 5485 5485 5486
5614 5611 5608 5608 5602 5597 5593 5588 5583 5578 5573 5568 5563 5558 5552 5547 5542 5537 5532 5526 5521 5516 5511 5507 5502 5498 5494 5490 5487 5484 5481 5479 5476 5475 5474 5473 5472 5471 5470 5470 5470 5471 5471 5472
5605 5601 5598 5597 5592 5587 5582 5579 5573 5568 5563 5558 5552 5548 5543 5537 5532 5527 5522 5516 5511 5506 5501 5497 5492 5488 5483 5479 5475 5472 5469 5466 5464 5462 5461 5460 5459 5458 5457 5457 5457 5457 5457 5458
5595 5591 5588 5588 5582 5576 5572 5569 5564 5558 5552 5547 5542 5538 5534 5528 5522 5517 5512 5507 5501 5496 5491 5487 5482 5477 5473 5468 5464 5460 5457 5455 5453 5451 5449 5448 5447 5446 5444 5444 5444 5444 5445 5445
5586 5581 5578 5576 5571 5566 5563 5559 5553 5547 5542 5537 5532 5527 5523 5518 5513 5507 5502 5497 5492 5487 5482 5477 5472 5467 5462 5458 5454 5450 5446 5444 5441 5439 5437 5436 5435 5433 5432 5432 5432 5432 5433 5433
5577 5573 5572 5565 5560 5557 5552 5547 5542 5536 5531 5526 5522 5517 5512 5508 5503 5498 5493 5488 5482 5477 5472 5467 5462 5457 5452 5448 5443 5439 5436 5433 5431 5428 5425 5424 5423 5422 5420 5419 5420 5420 5421 5421
5570 5567 5561 5555 5551 5546 5542 5537 5532 5527 5522 5517 5512 5507 5502 5498 5493 5488 5483 5478 5473 5467 5462 5457 5452 5447 5442 5438 5433 5430 5426 5423 5420 5418 5415 5413 5412 5411 5410 5409 5408 5409 5409 5410
5560 5556 5551 5545 5541 5536 5531 5526 5521 5516 5512 5507 5502 5497 5492 5487 5482 5478 5473 5468 5463 5458 5453 5447 5442 5437 5432 5428 5424 5420 5417 5413 5410 5408 5406 5404 5402 5401 5400 5399 5398 5398 5398 5399
5550 5546 5541 5536 5532 5527 5521 5516 5511 5506 5501 5496 5492 5487 5482 5477 5472 5467 5462 5457 5452 5448 5443 5438 5432 5427 5422 5418 5414 5411 5407 5404 5401 5399 5397 5395 5393 5392 5390 5389 5388 5388 5388 5389
5541 5536 5532 5528 5522 5517 5512 5507 5502 5497 5492 5486 5481 5477 5472 5467 5462 5457 5452 5447 5442 5437 5432 5428 5423 5418 5413 5409 5405 5401 5398 5395 5392 5390 5387 5386 5384 5383 5381 5380 5379 5378 5378 5379
5531 5526 5521 5517 5512 5507 5502 5497 5492 5486 5481 5477 5471 5466 5461 5456 5451 5446 5441 5436 5432 5427 5422 5418 5413 5408 5404 5399 5395 5392 5388 5385 5382 5380 5378 5377 5375 5374 5373 5372 5370 5370 5370 5370
5521 5516 5512 5507 5502 5497 5492 5487 5482 5476 5471 5466 5461 5456 5451 5446 5441 5436 5431 5426 5422 5417 5412 5408 5404 5399 5394 5390 5386 5383 5379 5376 5373 5371 5369 5368 5366 5364 5363 5363 5362 5362 5361 5361
5511 5506 5502 5497 5492 5487 5482 5477 5472 5467 5461 5456 5451 5446 5441 5436 5431 5426 5421 5416 5412 5407 5402 5398 5394 5389 5385 5380 5377 5373 5370 5367 5365 5363 5361 5359 5357 5356 5354 5354 5353 5353 5353 5353
5501 5497 5492 5488 5483 5478 5473 5467 5462 5457 5452 5446 5441 5436 5431 5426 5421 5416 5411 5406 5402 5397 5392 5388 5384 5379 5375 5371 5367 5364 5361 5358 5355 5353 5352 5350 5348 5347 5346 5345 5344 5344 5344 5344
5492 5487 5483 5478 5473 5468 5463 5458 5453 5447 5442 5437 5432 5426 5421 5416 5411 5406 5401 5396 5391 5387 5382 5378 5374 5370 5366 5362 5358 5355 5352 5350 5347 5345 5343 5341 5340 5338 5337 5337 5336 5336 5336 5336
5482 5478 5473 5469 5464 5459 5454 5448 5443 5438 5432 5427 5422 5417 5412 5406 5401 5396 5392 5387 5382 5377 5372 5368 5364 5360 5356 5352 5349 5346 5343 5341 5338 5336 5334 5333 5331 5330 5329 5329 5328 5328 5328 5328
5473 5469 5464 5459 5454 5449 5444 5439 5434 5428 5423 5418 5413 5408 5402 5397 5392 5387 5382 5377 5373 5368 5364 5359 5355 5351 5347 5343 5340 5337 5334 5332 5330 5328 5327 5325 5324 5322 5321 5321 5320 5320 5320 5320
5464 5459 5455 5450 5445 5440 5435 5429 5424 5419 5414 5408 5403 5398 5393 5388 5383 5378 5373 5368 5363 5359 5354 5350 5346 5341 5337 5334 5330 5328 5325 5324 5322 5320 5319 5317 5316 5315 5314 5313 5313 5313 5313 5313
5454 5450 5445 5440 5435 5430 5425 5420 5415 5410 5405 5399 5394 5389 5384 5379 5374 5369 5364 5360 5355 5350 5346 5341 5336 5332 5328 5325 5322 5319 5317 5315 5313 5312 5311 5310 5309 5308 5307 5306 5306 5305 5305 5306
5445 5440 5436 5431 5426 5421 5416 5411 5406 5401 5396 5390 5385 5380 5375 5370 5365 5360 5355 5351 5346 5342 5337 5332 5328 5323 5320 5316 5313 5311 5309 5307 5305 5304 5303 5302 5301 5300 5300 5299 5299 5299 5299 5299
5435 5431 5427 5422 5417 5412 5407 5402 5397 5392 5387 5382 5377 5372 5367 5362 5357 5352 5348 5342 5338 5333 5328 5324 5320 5315 5312 5308 5306 5303 5301 5299 5298 5297 5296 5295 5294 5294 5293 5293 5293 5293 5294 5294
5426 5422 5417 5413 5408 5403 5398 5393 5388 5383 5378 5373 5368 5364 5359 5354 5349 5344 5339 5334 5329 5324 5320 5316 5311 5307 5304 5301 5298 5296 5294 5293 5291 5290 5289 5288 5288 5288 5287 5287 5287 5288 5289 5289
5417 5412 5408 5404 5399 5394 5389 5384 5380 5375 5370 5365 5360 5355 5350 5345 5341 5336 5330 5325 5321 5316 5312 5308 5303 5300 5297 5294 5292 5290 5288 5286 5285 5284 5283 5282 5282 5281 5281 5281 5282 5282 5283 5284
5407 5403 5399 5395 5390 5385 5381 5376 5372 5367 5362 5357 5352 5347 5342 5337 5332 5327 5322 5317 5313 5308 5304 5300 5296 5293 5290 5287 5285 5283 5281 5280 5279 5277 5277 5276 5275 5275 5275 5276 5276 5277 5277 5278
5398 5394 5390 5386 5381 5377 5372 5368 5363 5359 5354 5349 5344 5339 5334 5329 5324 5319 5314 5310 5305 5301 5297 5293 5290 5286 5283 5281 5279 5277 5275 5274 5272 5271 5270 5270 5269 5269 5269 5270 5270 5271 5272 5272